軌道要素
Epoch 2012 Aug. 21.0 TT = JDT 2456160.5
T 2012 Aug. 20.16460 TT MPCW
q 0.0484802 (2000.0) P Q
n 0.23346412 Peri. 353.07839 +0.73470165 +0.67549910
a 2.6120969 Node 324.16950 -0.61717540 +0.62727109
e 0.9814401 Incl. 6.13542 -0.28161680 +0.38759767
P 4.22
From 47 observations 1999 Dec. 12-2012 Aug. 20.
|